TimeCST,TemperatureF,Dew PointF,Humidity,Sea Level PressureIn,VisibilityMPH,Wind Direction,Wind SpeedMPH,Gust SpeedMPH,PrecipitationIn,Events,Conditions,WindDirDegrees,DateUTC
12:52 AM,15.1,5.0,64,30.29,10.0,NNW,9.2,-,N/A,,Clear,330,2013-01-26 06:52:00
1:52 AM,12.9,3.9,67,30.30,10.0,WNW,6.9,-,N/A,,Clear,300,2013-01-26 07:52:00
2:52 AM,12.0,3.9,70,30.32,10.0,WNW,8.1,-,N/A,,Clear,300,2013-01-26 08:52:00
3:52 AM,12.0,3.9,70,30.33,10.0,NNW,5.8,-,N/A,,Clear,330,2013-01-26 09:52:00
4:52 AM,10.9,3.0,70,30.35,10.0,West,3.5,-,N/A,,Clear,280,2013-01-26 10:52:00
5:52 AM,10.0,3.0,73,30.38,10.0,NW,3.5,-,N/A,,Clear,310,2013-01-26 11:52:00
6:52 AM,9.0,3.0,77,30.38,10.0,Calm,Calm,-,N/A,,Clear,0,2013-01-26 12:52:00
7:52 AM,10.9,3.9,73,30.41,10.0,Calm,Calm,-,N/A,,Clear,0,2013-01-26 13:52:00
8:52 AM,14.0,5.0,67,30.42,10.0,Calm,Calm,-,N/A,,Clear,0,2013-01-26 14:52:00
9:52 AM,18.0,6.1,60,30.43,10.0,East,4.6,-,N/A,,Clear,80,2013-01-26 15:52:00
10:52 AM,21.0,7.0,55,30.45,10.0,Variable,3.5,-,N/A,,Clear,0,2013-01-26 16:52:00
11:52 AM,23.0,7.0,50,30.41,10.0,South,6.9,-,N/A,,Clear,180,2013-01-26 17:52:00
12:52 PM,26.1,7.0,44,30.39,10.0,East,3.5,-,N/A,,Clear,100,2013-01-26 18:52:00
1:52 PM,28.0,8.1,43,30.37,10.0,Variable,3.5,-,N/A,,Clear,0,2013-01-26 19:52:00
2:52 PM,30.0,9.0,41,30.36,10.0,South,5.8,-,N/A,,Clear,180,2013-01-26 20:52:00
3:52 PM,30.0,10.0,43,30.34,10.0,ESE,8.1,-,N/A,,Clear,110,2013-01-26 21:52:00
4:52 PM,30.0,10.0,43,30.35,10.0,SE,6.9,-,N/A,,Overcast,130,2013-01-26 22:52:00
5:52 PM,28.0,12.0,51,30.34,10.0,ESE,9.2,-,N/A,,Overcast,110,2013-01-26 23:52:00
6:52 PM,27.0,12.0,53,30.35,10.0,ESE,6.9,-,N/A,,Clear,110,2013-01-27 00:52:00
7:52 PM,27.0,12.0,53,30.35,10.0,ESE,9.2,-,N/A,,Scattered Clouds,110,2013-01-27 01:52:00
8:52 PM,27.0,12.0,53,30.34,10.0,ESE,8.1,-,N/A,,Clear,120,2013-01-27 02:52:00
9:52 PM,27.0,12.9,56,30.34,10.0,ESE,6.9,-,N/A,,Clear,110,2013-01-27 03:52:00
10:52 PM,27.0,14.0,58,30.34,10.0,East,8.1,-,N/A,,Scattered Clouds,100,2013-01-27 04:52:00
11:52 PM,28.0,12.9,53,30.34,10.0,SE,9.2,-,N/A,,Clear,140,2013-01-27 05:52:00